Location: Unspecified
(49.8670°N, 0.0000°E)
Time: 17:05:59
(UTC+00:00)

Courier 1B - Pass Details

Date: 17 June 2019
Orbit: 963 x 1209 km, 28.3° (Epoch: 18 July)

Event Time Altitude Azimuth Distance (km) Brightness Sun altitude
Rises 21:03:17 0° 221° (SW) 4,023 10.6 -6.8°
Reaches altitude 10° 21:08:05 10° 195° (SSW) 3,103 9.8 -7.3°
Maximum altitude 21:11:08 13° 171° (S) 2,917 9.5 -7.6°
Drops below altitude 10° 21:14:12 10° 147° (SSE) 3,135 9.5 -7.9°
Enters shadow 21:14:38 - 145° (SE) 3,196 9.5 -8.0°
